Tampa, FL

11:33 AM EDT on April 24, 2018 (GMT -0400)
Tampa International

Weather History for KTPA - August, 2012

Change the Weather History Date:

Tuesday, August 14, 2012

  Actual Average Record
Temperature  
Mean Temperature 86 °F 83 °F  
Max Temperature 93 °F 90 °F 97 °F (1961)
Min Temperature 78 °F 76 °F 67 °F (1890)
Degree Days  
Heating Degree Days 0 0  
Month to date heating degree days 0 0  
Since 1 June heating degree days 0 0  
Since 1 July heating degree days 0 0  
Cooling Degree Days 21 18  
Month to date cooling degree days 272 252  
Year to date cooling degree days 2614 2203  
Since 1 June cooling degree days 1322 1326  
Growing Degree Days 36 (Base 50)    
Moisture  
Dew Point 73 °F    
Average Humidity 72    
Maximum Humidity 91    
Minimum Humidity 52    
Precipitation  
Precipitation T in 0.26 in 2.11 in (2013)
Month to date precipitation 1.34 3.48  
Year to date precipitation 37.23 29.43  
Sea Level Pressure  
Sea Level Pressure 30.03 in    
Wind  
Wind Speed 4 mph (SSW)    
Max Wind Speed 17 mph    
Max Gust Speed 22 mph    
Visibility 10 miles    
Events Rain , Thunderstorm    
T = Trace of Precipitation, MM = Missing Value Source: NWS Daily Summary

Daily Weather History Graph

Daily Weather History Graph

Search for Another Location

Airport or City:

Astronomy

Aug. 14, 2012 Rise Set
Actual Time 6:59 AM EDT 8:08 PM EDT
Civil Twilight 6:35 AM EDT 8:33 PM EDT
Nautical Twilight 6:06 AM EDT 9:02 PM EDT
Astronomical Twilight 5:36 AM EDT 9:32 PM EDT
Moon 4:04 AM EDT (8/14) 5:56 PM EDT (8/14)
Length of Visible Light 13h 58m
Length of Day
13h 08m
Waning Crescent, 10% of the Moon is Illuminated
Aug 14
Waning Crescent
Aug 17
New
Aug 24
First Quarter
Aug 31
Full
Sep 8
Last Quarter

Hourly Weather History & Observations

Time (EDT) Temp. Heat Index Dew Point Humidity Pressure Visibility Wind Dir Wind Speed Gust Speed Precip Events Conditions
12:53 AM 82.0 °F 87.9 °F 73.9 °F 76% 30.05 in 10.0 mi Calm Calm - N/A   Partly Cloudy
1:53 AM 81.0 °F 86.2 °F 73.9 °F 79% 30.04 in 10.0 mi ESE 3.5 mph - N/A   Partly Cloudy
2:53 AM 81.0 °F 86.2 °F 73.9 °F 79% 30.02 in 10.0 mi Calm Calm - N/A   Scattered Clouds
3:53 AM 80.1 °F 84.5 °F 73.9 °F 81% 30.01 in 10.0 mi Calm Calm - N/A   Scattered Clouds
4:53 AM 80.1 °F 84.5 °F 73.9 °F 81% 30.01 in 10.0 mi Calm Calm - N/A   Scattered Clouds
5:53 AM 80.1 °F 85.1 °F 75.0 °F 85% 30.02 in 10.0 mi Calm Calm - N/A   Mostly Cloudy
6:53 AM 79.0 °F - 75.0 °F 88% 30.04 in 10.0 mi Calm Calm - N/A   Scattered Clouds
7:53 AM 80.1 °F 85.4 °F 75.9 °F 87% 30.04 in 10.0 mi Calm Calm - N/A   Scattered Clouds
8:53 AM 84.9 °F 93.3 °F 75.0 °F 72% 30.06 in 10.0 mi Calm Calm - N/A   Scattered Clouds
9:53 AM 86.0 °F 93.8 °F 73.9 °F 67% 30.06 in 10.0 mi WSW 4.6 mph - N/A   Scattered Clouds
10:53 AM 88.0 °F 97.5 °F 75.0 °F 65% 30.06 in 10.0 mi West 6.9 mph - N/A   Scattered Clouds
11:53 AM 89.1 °F 98.0 °F 73.9 °F 61% 30.06 in 10.0 mi WSW 8.1 mph - N/A   Scattered Clouds
12:53 PM 88.0 °F 94.7 °F 72.0 °F 59% 30.04 in 10.0 mi SW 6.9 mph - N/A   Scattered Clouds
1:21 PM 84.2 °F 90.9 °F 73.4 °F 70% 30.04 in 10.0 mi SW 11.5 mph - N/A Thunderstorm Thunderstorm
1:53 PM 84.0 °F 88.4 °F 70.0 °F 63% 30.03 in 10.0 mi WSW 8.1 mph - 0.00 in Rain Light Rain
2:53 PM 91.0 °F 95.2 °F 68.0 °F 47% 30.02 in 10.0 mi West 6.9 mph - 0.00 in   Scattered Clouds
3:53 PM 88.0 °F 92.1 °F 69.1 °F 53% 30.01 in 10.0 mi NW 11.5 mph - 0.00 in   Mostly Cloudy
4:53 PM 91.9 °F 99.5 °F 72.0 °F 52% 30.00 in 10.0 mi NNW 8.1 mph - N/A   Mostly Cloudy
5:53 PM 84.0 °F 89.6 °F 72.0 °F 67% 30.00 in 10.0 mi SE 10.4 mph - N/A   Mostly Cloudy
6:48 PM 82.4 °F 87.2 °F 71.6 °F 70% 30.00 in 10.0 mi ESE 4.6 mph - N/A Thunderstorm Thunderstorm
6:53 PM 82.9 °F 88.0 °F 72.0 °F 69% 30.01 in 10.0 mi SE 5.8 mph - N/A Thunderstorm Thunderstorm
7:17 PM 82.4 °F 87.2 °F 71.6 °F 70% 30.01 in 10.0 mi Calm Calm - N/A   Mostly Cloudy
7:53 PM 84.0 °F 89.0 °F 71.1 °F 65% 30.01 in 10.0 mi ESE 3.5 mph - N/A   Mostly Cloudy
8:53 PM 82.9 °F 88.0 °F 72.0 °F 69% 30.02 in 10.0 mi SE 4.6 mph - N/A   Scattered Clouds
9:53 PM 81.0 °F 84.9 °F 71.1 °F 72% 30.04 in 10.0 mi ESE 3.5 mph - N/A   Scattered Clouds
10:53 PM 79.0 °F - 71.1 °F 77% 30.06 in 10.0 mi Calm Calm - N/A   Partly Cloudy
11:53 PM 79.0 °F - 71.1 °F 77% 30.05 in 10.0 mi Variable 3.5 mph - N/A   Scattered Clouds